Millbury, Ohio, United States (43447)
Lat: 41.57N, Lon: 83.42W
Wx Zone: OHZ006
Local Info
Past Weather Observations for Today

NOTE: This archive is for the closest National Weather Service station to Millbury. Information may differ from the station used for current weather conditions.

Click here for Long-term Archive

Time Weather Temperature Dewpoint Humidity Pressure Winds Precip Visibility
17:53
Clear
30°F / -1°C 23°F / -5°C 75% 30.24 in
(1024 mb)
Calm - 9SM
16:53
Mostly Cloudy
32°F / 0°C 25°F / -4°C 75% 30.24 in
(1024 mb)
Calm - 9SM
16:51
Mostly Cloudy
32°F / 0°C 25°F / -4°C 75% 30.24 in
(1024 mb)
S 3.5 mph
(S 6 kph)
- 9SM
16:14
Overcast
34°F / 1°C 25°F / -4°C 70% 30.24 in
(1024 mb)
S 3.5 mph
(S 6 kph)
- 10SM
15:53
Mostly Cloudy
36°F / 2°C 25°F / -4°C 65% 30.24 in
(1024 mb)
Calm - 10SM
15:43
Mostly Cloudy
36°F / 2°C 25°F / -4°C 65% 30.24 in
(1024 mb)
Variable 3.5 mph
(Variable 6 kph)
- 10SM
15:28
Mostly Cloudy
36°F / 2°C 25°F / -4°C 65% 30.24 in
(1024 mb)
Calm - 10SM
15:18
Mostly Cloudy
34°F / 1°C 25°F / -4°C 70% 30.24 in
(1024 mb)
Calm - 10SM
14:53
Mostly Cloudy
36°F / 2°C 25°F / -4°C 65% 30.24 in
(1024 mb)
S 4.6 mph
(S 7 kph)
- 10SM
14:37
Mostly Cloudy
36°F / 2°C 25°F / -4°C 65% 30.24 in
(1024 mb)
SSE 4.6 mph
(SSE 7 kph)
- 10SM
14:20
Partly Cloudy
34°F / 1°C 25°F / -4°C 70% 30.24 in
(1024 mb)
Calm - 10SM
13:53
Mostly Cloudy
36°F / 2°C 25°F / -4°C 65% 30.24 in
(1024 mb)
Variable 5.8 mph
(Variable 9 kph)
- 9SM
13:44
Mostly Cloudy
36°F / 2°C 25°F / -4°C 65% 30.24 in
(1024 mb)
S 3.5 mph
(S 6 kph)
- 9SM
12:53
Partly Cloudy
36°F / 2°C 25°F / -4°C 65% 30.27 in
(1025 mb)
S 8.1 mph
(S 13 kph)
- 9SM
11:53
Clear
34°F / 1°C 25°F / -4°C 70% 30.3 in
(1026 mb)
SSE 8.1 mph
(SSE 13 kph)
- 7SM
10:53
Clear
Hazy
32°F / 0°C 25°F / -4°C 75% 30.33 in
(1027 mb)
S 6.9 mph
(S 11 kph)
- 6SM
09:53
Clear
Fog And Mist
28°F / -2°C 25°F / -4°C 86% 30.33 in
(1027 mb)
S 4.6 mph
(S 7 kph)
- 3SM
09:33
Clear
Fog And Mist
27°F / -3°C 25°F / -4°C 93% 30.33 in
(1027 mb)
S 3.5 mph
(S 6 kph)
- 3SM
08:53
Clear
Fog And Mist
25°F / -4°C 21°F / -6°C 86% 30.33 in
(1027 mb)
Calm - 2 1/2SM
08:04
Clear
Fog And Mist
21°F / -6°C 18°F / -8°C 86% 30.33 in
(1027 mb)
Calm - 2 1/2SM
07:53
Clear
Fog And Mist
21°F / -6°C 18°F / -8°C 86% 30.33 in
(1027 mb)
Calm - 3SM
07:42
Partly Cloudy
Fog And Mist
21°F / -6°C 18°F / -8°C 86% 30.33 in
(1027 mb)
Calm - 2 1/2SM
06:53
Clear
Fog And Mist
21°F / -6°C 19°F / -7°C 93% 30.33 in
(1027 mb)
Calm - 4SM
06:44
Clear
Fog And Mist
21°F / -6°C 19°F / -7°C 93% 30.33 in
(1027 mb)
Calm - 4SM
06:29
Clear
Fog And Mist
21°F / -6°C 18°F / -8°C 86% 30.3 in
(1026 mb)
Calm - 2SM
06:02
Partly Cloudy
Fog And Mist
21°F / -6°C 19°F / -7°C 93% 30.33 in
(1027 mb)
Calm - 3SM
05:53
Partly Cloudy
Fog And Mist
21°F / -6°C 19°F / -7°C 93% 30.3 in
(1026 mb)
Calm - 1 1/4SM
05:40
Partly Cloudy
Fog And Mist
21°F / -6°C 19°F / -7°C 93% 30.3 in
(1026 mb)
Calm - 1 3/4SM
05:28
Partly Cloudy
Fog And Mist
21°F / -6°C 19°F / -7°C 93% 30.3 in
(1026 mb)
Calm - 1SM
04:53
Partly Cloudy
Fog And Mist
25°F / -4°C 21°F / -6°C 86% 30.3 in
(1026 mb)
Calm - 2 1/2SM
04:48
Partly Cloudy
Fog And Mist
23°F / -5°C 19°F / -7°C 86% 30.3 in
(1026 mb)
Calm - 3SM
04:34
Partly Cloudy
Fog And Mist
21°F / -6°C 18°F / -8°C 86% 30.3 in
(1026 mb)
Calm - 2SM
04:15
Partly Cloudy
Fog And Mist
23°F / -5°C 19°F / -7°C 86% 30.3 in
(1026 mb)
SW 4.6 mph
(SW 7 kph)
- 3SM
04:08
Partly Cloudy
Fog And Mist
23°F / -5°C 19°F / -7°C 86% 30.3 in
(1026 mb)
Calm - 2 1/2SM
04:04
Mostly Cloudy
Fog And Mist
23°F / -5°C 19°F / -7°C 86% 30.3 in
(1026 mb)
Calm - 3SM
03:53
Mostly Cloudy
Fog And Mist
25°F / -4°C 19°F / -7°C 80% 30.3 in
(1026 mb)
Calm - 3SM
02:53
Clear
Fog And Mist
25°F / -4°C 21°F / -6°C 86% 30.3 in
(1026 mb)
Calm - 4SM
01:53
Mostly Cloudy
Hazy
28°F / -2°C 23°F / -5°C 80% 30.3 in
(1026 mb)
Calm - 6SM
00:53
Overcast
Hazy
30°F / -1°C 25°F / -4°C 80% 30.3 in
(1026 mb)
Calm - 6SM
Time Weather Temperature Dewpoint Humidity Pressure Winds Precip Visibility


Weather for websites

WeatherForYou.com, LLC is not responsible for any damages or problems caused by this service. Current weather conditions are obtained from the closest station including government and personal stations which may have varying degrees of accuracy. Weather forecasts are derived from the NOAA NDFD. Like all things, this site belongs to Jesus Christ... He just trusts me to maintain it. If you have any questions or comments email webmaster@weatherforyou.com

Copyright © 2014, WeatherForYou.com LLC. All rights reserved.